Reflectivity
-20 -20 -20 -20 -20 -20 -20 -20 -20 -20 -20 -20 -20 19 -17 -11 6 -20 7 -20 -20 -20 -20 -14 29 -10 -20 -4 -20 -20 -20 -20
-20 -20 -20 -20 -20 -20 -20 -20 -20 -20 -20 -20 -9 -12 5 -20 -19 -20 7 2 -20 -20 -20 -20 -12 -16 27 5 16 -20 -20 -20
-20 -20 -20 -20 -20 -20 -20 -20 -20 -20 -20 -20 -13 -10 -13 -20 -19 14 -2 14 -18 -20 -20 -20 -20 22 -13 -20 -12 -20 -20 -20
-20 -20 -20 -20 -20 -20 -20 -20 -20 -20 -20 -20 -16 11 -15 14 -7 -14 -8 8 -14 8 -11 -20 -20 4 -15 11 -8 -17 -5 -20
-20 -20 -20 -20 -20 -20 -20 -20 -20 -20 -20 -10 -14 -4 7 10 -13 -20 -6 7 -20 -18 -5 -20 -20 -20 -20 -20 -15 19 14 -20
-20 -20 -20 -20 -20 -20 -20 -20 -20 -20 -20 -20 -20 -14 24 -11 -6 -15 -19 3 3 -19 10 -20 -20 -20 -20 -17 -20 -8 -0 -4
-20 -20 -20 -20 -20 -20 -20 -20 -20 -15 -3 -10 -8 -15 -12 -20 3 1 -4 23 8 22 11 -4 -13 -18 -20 -9 -20 -20 -20 22
-20 -20 -20 -20 -20 -19 -20 -18 -20 -1 -2 -8 -11 -18 -6 -5 -15 -9 -1 -14 0 10 4 -15 -5 -14 -20 21 -20 -20 -20 -20
-20 -20 -20 -20 -20 -20 -20 -20 -3 -19 4 16 -14 -15 -1 4 -3 15 20 12 9 6 27 -12 -19 -19 24 -18 -19 25 -20 10
-12 -20 -20 -20 -20 -17 -19 -20 -20 10 9 14 27 -7 35 -11 23 16 30 43 33 36 32 29 13 32 29 -13 0 -12 8 18
-20 -20 -20 -20 -20 -20 -20 -20 -20 -20 11 26 -20 3 31 2 35 -11 0 11 22 28 38 30 32 24 29 28 28 26 -13 18
11 7 -16 -20 -20 -20 -20 -20 -20 -20 -19 18 22 26 -15 -2 30 27 26 -4 -18 -12 25 25 18 28 21 27 27 28 -13 -6
22 23 17 -6 -20 -20 -20 -20 -20 -20 -20 -20 -19 8 15 -1 1 -11 -19 -2 21 -20 -14 33 42 21 24 27 27 25 27 27
35 29 15 8 13 9 10 -17 -20 -20 -20 -20 -20 -20 -14 10 19 -10 18 15 15 24 26 32 39 34 40 53 33 29 26 27
41 36 31 28 23 12 12 9 8 -14 -20 -20 18 21 -20 3 18 15 24 16 10 17 9 -7 36 5 7 11 23 38 37 36
37 39 41 36 30 28 23 26 22 16 -7 -0 3 10 -13 -2 -4 7 -18 -20 -20 -20 -1 20 15 32 16 10 -19 15 18 33
22 23 27 30 34 35 30 29 26 32 20 27 19 25 17 -10 -14 -2 -2 5 -20 -20 -20 -20 7 8 -10 16 10 3 12 10
18 21 19 18 4 13 14 27 27 23 14 23 32 33 25 15 2 -18 -5 -0 -20 -20 -20 -20 -20 -20 4 11 10 -20 -11 -5
13 9 13 16 12 11 24 18 13 12 14 28 26 28 19 18 10 4 1 -6 -20 -20 -20 -20 -20 -19 8 13 -0 -20 -20 -20
Wind_Speed
15 14 12 11 11 15 21 20 23 23 17 15 11 11 11 11 12 13 18 15 18 14 11 12 12 10 9 9 10 4 5 8
14 14 15 18 17 14 21 21 22 17 15 14 12 12 12 11 13 18 18 16 18 17 11 12 13 13 13 11 8 9 3 6
21 20 18 19 17 13 19 23 22 20 16 15 12 13 13 14 12 15 18 18 19 17 15 14 15 11 13 14 14 7 3 9
22 20 16 16 14 13 19 22 22 23 22 15 12 11 10 9 12 12 16 20 17 18 17 15 15 13 12 15 13 16 11 8
22 22 16 10 14 14 19 22 22 22 22 18 20 15 14 11 13 12 14 18 18 20 18 16 16 11 14 15 12 11 11 14
23 19 10 3 2 10 13 18 20 22 22 22 18 18 14 12 13 18 15 16 18 20 18 18 17 13 14 16 15 15 13 12
7 3 8 7 6 3 9 15 15 15 19 20 22 21 18 13 14 12 12 12 12 18 18 17 17 15 17 16 17 19 16 12
13 12 11 11 11 10 7 11 10 12 16 17 18 16 17 18 15 12 12 10 11 16 18 18 16 18 16 16 16 20 19 17
15 14 13 14 13 14 16 13 12 9 7 10 11 14 11 11 13 9 13 10 9 14 16 17 19 19 18 18 14 14 16 16
16 15 15 14 15 15 14 14 13 12 9 6 5 5 7 12 17 14 10 8 10 11 15 16 17 16 17 18 14 17 15 17
14 14 15 14 13 13 14 15 14 12 11 10 10 10 5 5 3 6 6 9 12 14 11 12 15 16 16 17 16 16 18 14
12 13 12 14 14 14 13 15 14 14 13 11 11 11 12 10 9 8 7 9 7 1 11 12 15 14 17 17 18 18 19 19
12 13 13 15 14 14 13 14 14 12 11 11 11 10 9 10 9 8 8 8 6 6 6 4 7 15 15 19 19 17 19 19
15 15 14 14 12 13 13 11 12 11 10 11 10 10 10 9 7 6 4 7 6 2 2 4 2 2 5 19 19 18 19 19
11 11 13 12 13 10 13 13 11 10 10 10 10 8 7 7 6 6 6 5 4 5 3 4 5 6 5 5 12 15 15 13
10 5 7 3 7 9 10 7 9 10 10 8 8 8 5 6 6 6 5 5 5 5 5 6 4 3 7 6 6 5 12 13
9 5 7 7 5 4 6 5 6 4 3 7 7 6 8 5 6 6 5 4 2 2 3 3 2 2 7 4 6 3 4 13
8 6 2 5 5 6 8 0 3 2 7 3 5 4 7 5 2 3 2 1 3 5 4 3 4 4 7 8 6 5 5 4
10 9 10 10 7 8 6 7 8 7 5 6 6 4 7 6 5 4 2 2 4 4 4 5 4 5 9 10 8 4 6 6
Wind_Direction
243 245 240 228 214 196 197 194 192 192 188 187 192 188 189 184 186 186 185 182 174 178 176 171 171 169 172 175 174 153 161 152
249 248 247 250 239 214 197 194 191 186 185 183 186 188 184 182 191 189 185 180 178 181 177 167 174 176 177 178 167 169 132 135
255 254 248 244 235 197 188 192 186 188 186 187 187 183 187 186 188 188 186 187 182 181 179 177 177 176 174 175 174 172 151 173
253 252 237 231 222 208 187 191 186 187 187 184 185 187 185 188 186 187 192 188 180 184 183 178 178 177 179 184 183 182 179 189
248 252 248 210 223 205 189 187 185 187 184 183 183 181 185 189 184 187 187 187 180 185 184 179 182 181 183 183 181 184 179 190
239 244 231 95 256 186 181 192 185 185 183 185 184 186 191 185 189 187 184 185 183 187 184 182 183 184 182 182 178 185 195 190
246 244 79 48 19 133 156 177 192 190 187 188 187 187 182 182 185 184 182 188 181 189 187 188 188 188 182 185 185 187 192 201
59 59 62 56 45 55 69 149 159 170 185 188 193 194 183 184 181 179 174 184 189 195 187 188 190 192 187 190 189 191 192 196
59 57 58 59 60 63 74 73 78 77 140 180 194 194 177 176 176 196 179 176 191 202 196 192 197 192 189 187 192 199 195 200
52 52 49 46 49 55 60 65 63 60 60 84 106 172 195 184 178 169 158 186 188 205 200 197 199 197 198 191 196 193 201 202
53 48 52 50 46 45 51 57 55 56 55 55 66 62 81 113 116 140 157 193 204 195 195 208 194 196 201 200 204 202 197 201
42 54 50 55 52 49 47 50 48 47 44 48 54 56 60 74 82 76 85 75 68 92 209 208 208 196 200 203 207 208 202 200
13 52 48 50 45 44 45 45 48 44 41 46 50 50 54 72 72 76 78 74 62 59 31 99 277 236 219 202 206 206 205 208
24 39 37 38 37 41 38 33 36 34 44 43 37 53 57 48 49 51 75 104 99 90 56 29 302 48 314 217 206 209 203 209
30 8 39 37 35 32 40 33 25 19 31 33 27 17 48 62 72 55 31 27 64 90 79 78 329 353 12 324 210 198 201 214
79 29 62 149 19 50 20 57 41 17 11 40 26 356 24 54 51 64 75 37 20 15 27 15 39 268 55 356 9 269 200 198
105 88 57 58 13 149 142 85 325 50 97 10 3 16 330 24 47 38 35 13 20 55 359 355 340 73 70 42 347 335 299 214
58 55 353 29 49 8 353 130 171 266 344 338 336 341 307 338 354 65 46 328 349 343 332 337 3 358 9 19 6 318 295 289
36 32 35 34 21 24 20 5 27 32 24 9 333 339 297 312 305 274 224 181 206 190 266 310 341 332 338 345 348 311 284 268